STARLINK-31128, 58669

Orbit data source: Space-Track

STARLINK-31128, 58669 is a payload satellite owned by SpaceX/Seattle (US) in LEO that was launched on Fri, 29 Dec 2023 UTC via an FALCON 9 launch vehicle from the Air Force Eastern Test Range (AFETR). Payload-class satellites include a variety of spacecraft equipped with specific instruments for various scientific and technological missions. These include communications satellites like Starlink; space stations such as the ISS; scientific satellites like the Hubble; Earth observation satellites from companies like Planet Labs, Umbra, and HawkEye 360; GPS; miniature CubeSats for education and research; and military/defense satellites.

Loading next visibility...
Identifier
58669, 2023-211C
Orbit
LEO
Country
Flag of USUS
Related business
Manufacturer
SpaceX/Seattle
Mission
Operational Commercial Communications
Bus & Motor
STARLINK V2M, Unknown motor
Mass
730 kg wet, ~700 kg dry
Launch date (UTC)
2023-12-29 (2 years ago)
Launch vehicle
FALCON 9
Launch site
Air Force Eastern Test Range (AFETR)
Object type
Payload
Rocket body
Debris
Shape & HBR
Box + 2 Pan, 17.7 m
Radar Cross Section
33.884 m², Large (>1 m²)

Expand to show TLE details & history
Last TLE update: 2 days ago

TLE from 2 days ago
0 STARLINK-31128
1 58669U 23211C   26171.20309934 -.00000218  00000-0  15969-5 0  9997
2 58669  43.0025 226.2566 0001169 268.6410  91.4308 15.27575320138142
Epoch: 2026-06-20T04:52Z
TLE epoch observation values (Epoch: 2026-06-20T04:52:27.782Z)
Latitude
-0.00002°
Longitude
-115.28028°
Altitude
482.859 km
Speed
7.626 km/s
True Right ascension
15h 05m 01s
True Declination
0° 00' 00"
Sunlit
Object was in full shadow at epoch
Visualization orbit readout
Latitude
Unknown
Longitude
Unknown
Altitude
Unknown
Speed
Unknown
Apparent Right ascension
Unknown
Apparent Declination
Unknown
Sunlit
N/A
Visualization observer readout
Local Sidereal Time
21:27:23
Azimuth
Unknown
Elevation
Unknown
Doppler factor
Unknown
Orbital elements
Apogee altitude
485.81 km
Perigee altitude
484.206 km
Semi-major axis
6,863.145 km
Eccentricity
0.00012
Inclination
43.0025°
RAAN
226.2566°
Arg. of periapsis
268.641°
True anomaly
91.44419°
Mean anomaly
91.4308°
Eccentric anomaly
91.4375°
Mean motion
3.81732 °/min
Orbital period
94.31 mins
BSTAR
0.0000015969
Loading maneuver chart data...
Computing Atmospheric mass density...
Loading historical data...
Loading historical data...
Loading historical data...
Loading historical data...
Loading historical data...
Loading historical data...
Loading historical data...

Documentation

Showing up to 5 results
|